Location: Churchill Northern Studies Centre
(58.7378°N, 93.8201°W)
Time: 13:43:52
(UTC-05:00)

Envisat - Pass Details

Date: 10 October 2017
Orbit: 764 x 766 km, 98.2° (Epoch: 23 October)

Event Time Altitude Azimuth Distance (km) Brightness Sun altitude
Exits shadow 21:47:54 12° 209° (SSW) 2,162 5.3 -26.5°
Maximum altitude 21:51:56 30° 268° (W) 1,349 4.7 -26.9°
Drops below altitude 10° 21:56:25 10° 329° (NNW) 2,317 6.3 -27.4°
Sets 21:59:01 0° 340° (NNW) 3,248 7.1 -27.7°
